Date String (YYYY-MM-DD hh:mm:ss) UTC,Instrument flags,Ambient pressure (hPa),Sample flow (lpm),Bypass flow (lpm),Sample temperature (°C),Ambient temperature (°C),ASC tube jacket temperature (°C),LED temperature (°C),Box temperature (°C),Sample RH (%),Span deviation,Mass concentration (μg/m³),Mass concentration (μg/m³),Mass concentration (μg/m³)
DateTimeUTC,F1_M11,P_M11,Q1_M11,Q2_M11,T1_M11,T2_M11,T3_M11,T4_M11,T5_M11,U1_M11,ZSPAN_M11,X0_M11,X2_M11,X1_M11
2022-03-15 00:00:00,,0829.7,4.99,0.00,28.2,27.5,00.0,37.2,29.9,07.5,0000.0,0007.64,0003.65,0003.15
2022-03-15 00:01:00,,0829.8,5.01,0.00,28.1,27.4,00.0,37.2,29.8,07.5,0000.0,0007.54,0003.62,0003.14
2022-03-15 00:02:00,,0829.7,5.00,0.00,28.1,27.5,00.0,37.2,29.8,07.4,0000.0,0007.43,0003.62,0003.13
2022-03-15 00:03:00,,0829.8,5.00,0.00,28.1,27.4,00.0,37.2,29.8,07.3,0000.0,0007.09,0003.60,0003.14
2022-03-15 00:04:00,,0829.8,5.00,0.00,28.1,27.4,00.0,37.2,29.8,07.3,0000.0,0007.01,0003.61,0003.15
2022-03-15 00:05:00,,0829.8,4.99,0.00,28.1,27.4,00.0,37.2,29.8,07.3,0000.0,0007.43,0003.61,0003.15
2022-03-15 00:06:00,,0829.8,5.00,0.00,28.1,27.4,00.0,37.2,29.8,07.4,0000.0,0007.60,0003.56,0003.14
2022-03-15 00:07:00,,0829.8,5.00,0.00,28.1,27.4,00.0,37.1,29.8,07.4,0000.0,0007.70,0003.57,0003.15
2022-03-15 00:08:00,,0829.8,5.00,0.00,28.1,27.4,00.0,37.1,29.8,07.4,0000.0,0007.90,0003.62,0003.17
2022-03-15 00:09:00,,0829.8,5.00,0.00,28.1,27.4,00.0,37.1,29.8,07.3,0000.0,0008.08,0003.70,0003.19
2022-03-15 00:10:00,,0829.8,5.00,0.00,28.1,27.4,00.0,37.1,29.8,07.4,0000.0,0008.27,0003.74,0003.21
2022-03-15 00:11:00,,0829.8,5.00,0.00,28.1,27.3,00.0,37.1,29.8,07.4,0000.0,0007.73,0003.79,0003.23
2022-03-15 00:12:00,,0829.8,5.00,0.00,28.1,27.3,00.0,37.1,29.8,07.4,0000.0,0007.84,0003.84,0003.24
2022-03-15 00:13:00,,0829.8,5.00,0.00,28.1,27.3,00.0,37.1,29.7,07.4,0000.0,0007.95,0003.85,0003.24
2022-03-15 00:14:00,,0829.8,5.01,0.00,28.1,27.4,00.0,37.1,29.8,07.4,0000.0,0008.11,0003.87,0003.24
2022-03-15 00:15:00,,0829.9,5.00,0.00,28.1,27.4,00.0,37.1,29.8,07.5,0000.0,0008.14,0003.88,0003.24
2022-03-15 00:16:00,,0829.9,5.01,0.00,28.0,27.3,00.0,37.1,29.7,07.5,0000.0,0008.04,0003.88,0003.23
2022-03-15 00:17:00,,0829.9,5.00,0.00,28.0,27.3,00.0,37.1,29.7,07.5,0000.0,0007.80,0003.90,0003.23
2022-03-15 00:18:00,,0829.9,5.00,0.00,28.0,27.3,00.0,37.1,29.7,07.6,0000.0,0007.88,0003.91,0003.22
2022-03-15 00:19:00,,0829.9,5.00,0.00,28.0,27.3,00.0,37.1,29.7,07.6,0000.0,0008.29,0003.88,0003.21
2022-03-15 00:20:00,,0829.8,4.99,0.00,28.0,27.3,00.0,37.1,29.7,07.6,0000.0,0009.15,0003.85,0003.19
2022-03-15 00:21:00,,0829.9,5.01,0.00,28.0,27.3,00.0,37.1,29.7,07.5,0000.0,0009.78,0003.85,0003.17
2022-03-15 00:22:00,,0829.8,5.00,0.00,28.0,27.3,00.0,37.1,29.7,07.6,0000.0,0010.00,0003.81,0003.15
2022-03-15 00:23:00,,0829.9,5.00,0.00,28.0,27.3,00.0,37.1,29.7,07.7,0000.0,0009.94,0003.76,0003.12
2022-03-15 00:24:00,,0829.9,5.01,0.00,28.0,27.3,00.0,37.0,29.7,07.6,0000.0,0009.94,0003.73,0003.10
2022-03-15 00:25:00,,0829.9,5.00,0.00,28.0,27.2,00.0,37.0,29.7,07.6,0000.0,0009.82,0003.71,0003.06
2022-03-15 00:26:00,,0829.9,5.00,0.00,28.0,27.3,00.0,37.0,29.7,07.6,0000.0,0009.99,0003.73,0003.02
2022-03-15 00:27:00,,0829.8,4.99,0.00,28.0,27.3,00.0,37.0,29.7,07.5,0000.0,0010.84,0003.72,0002.98
2022-03-15 00:28:00,,0829.8,4.98,0.00,28.0,27.2,00.0,37.0,29.7,07.5,0000.0,0011.55,0003.73,0002.98
2022-03-15 00:29:00,,0829.9,5.00,0.00,28.0,27.2,00.0,37.0,29.7,07.6,0000.0,0011.57,0003.73,0002.97
2022-03-15 00:30:00,,0829.9,5.01,0.00,28.0,27.3,00.0,37.0,29.7,07.6,0000.0,0011.24,0003.72,0002.96
2022-03-15 00:31:00,,0830.0,5.01,0.00,28.0,27.3,00.0,37.0,29.8,07.5,0000.0,0010.42,0003.73,0002.94
2022-03-15 00:32:00,,0830.0,4.99,0.00,28.0,27.3,00.0,37.0,29.8,07.6,0000.0,0009.56,0003.68,0002.92
2022-03-15 00:33:00,,0829.9,4.98,0.00,28.0,27.3,00.0,37.0,29.8,07.6,0000.0,0009.08,0003.68,0002.92
2022-03-15 00:34:00,,0829.9,5.00,0.00,28.1,27.4,00.0,37.0,29.8,07.7,0000.0,0009.12,0003.70,0002.93
2022-03-15 00:35:00,,0829.9,5.00,0.00,28.1,27.4,00.0,37.0,29.8,07.6,0000.0,0009.11,0003.71,0002.95
2022-03-15 00:36:00,,0830.0,5.00,0.00,28.1,27.4,00.0,37.0,29.8,07.6,0000.0,0009.35,0003.75,0002.96
2022-03-15 00:37:00,,0830.0,5.00,0.00,28.1,27.4,00.0,37.0,29.8,07.6,0000.0,0009.97,0003.73,0002.97
2022-03-15 00:38:00,,0830.0,4.99,0.00,28.1,27.4,00.0,37.0,29.8,07.5,0000.0,0009.77,0003.72,0002.97
2022-03-15 00:39:00,,0830.0,5.01,0.00,28.1,27.4,00.0,37.0,29.9,07.6,0000.0,0008.83,0003.72,0002.95
2022-03-15 00:40:00,,0830.1,5.00,0.00,28.1,27.4,00.0,37.1,29.9,07.6,0000.0,0008.79,0003.68,0002.96
2022-03-15 00:41:00,,0830.0,5.00,0.00,28.1,27.5,00.0,37.1,29.9,07.6,0000.0,0008.63,0003.66,0002.96
2022-03-15 00:42:00,,0830.1,5.00,0.00,28.2,27.5,00.0,37.1,29.9,07.6,0000.0,0008.62,0003.64,0002.95
2022-03-15 00:43:00,,0830.1,4.99,0.00,28.2,27.5,00.0,37.1,30.0,07.6,0000.0,0009.04,0003.66,0002.95
2022-03-15 00:44:00,,0830.1,4.99,0.00,28.2,27.5,00.0,37.1,30.0,07.5,0000.0,0010.42,0003.65,0002.96
2022-03-15 00:45:00,,0830.0,5.00,0.00,28.2,27.6,00.0,37.1,30.0,07.4,0000.0,0011.05,0003.67,0002.96
2022-03-15 00:46:00,,0830.1,5.01,0.00,28.2,27.6,00.0,37.1,30.0,07.4,0000.0,0011.12,0003.66,0002.96
2022-03-15 00:47:00,,0830.0,5.01,0.00,28.2,27.6,00.0,37.1,30.0,07.4,0000.0,0010.98,0003.64,0002.95
2022-03-15 00:48:00,,0830.1,4.99,0.00,28.2,27.6,00.0,37.1,30.0,07.4,0000.0,0010.73,0003.65,0002.95
2022-03-15 00:49:00,,0830.1,4.99,0.00,28.2,27.6,00.0,37.1,30.0,07.3,0000.0,0010.73,0003.63,0002.93
2022-03-15 00:50:00,,0830.1,5.00,0.00,28.2,27.6,00.0,37.1,30.0,07.3,0000.0,0010.78,0003.66,0002.93
2022-03-15 00:51:00,,0830.1,5.01,0.00,28.2,27.6,00.0,37.1,30.0,07.4,0000.0,0010.73,0003.69,0002.93
2022-03-15 00:52:00,,0830.1,4.99,0.00,28.2,27.6,00.0,37.2,30.0,07.4,0000.0,0010.83,0003.72,0002.91
2022-03-15 00:53:00,,0830.1,5.00,0.00,28.2,27.6,00.0,37.2,30.0,07.4,0000.0,0010.77,0003.72,0002.89
2022-03-15 00:54:00,,0830.2,4.99,0.00,28.2,27.6,00.0,37.2,30.0,07.3,0000.0,0010.41,0003.69,0002.88
2022-03-15 00:55:00,,0830.2,5.00,0.00,28.2,27.6,00.0,37.2,30.0,07.3,0000.0,0009.15,0003.69,0002.86
2022-03-15 00:56:00,,0830.2,5.00,0.00,28.2,27.6,00.0,37.2,30.0,07.4,0000.0,0009.14,0003.64,0002.82
2022-03-15 00:57:00,,0830.2,4.99,0.00,28.2,27.6,00.0,37.2,30.0,07.2,0000.0,0009.69,0003.62,0002.77
2022-03-15 00:58:00,,0830.2,5.01,0.00,28.2,27.6,00.0,37.2,30.0,06.6,0000.0,0009.97,0003.61,0002.74
2022-03-15 00:59:00,,0830.1,5.01,0.00,28.2,27.6,00.0,37.2,30.0,06.2,0000.0,0009.73,0003.56,0002.70
